Location: *
(37.5724°S, 58.0067°E)
Time: 07:18:10
(UTC+00:00)

Cosmos 1933 Rocket - Pass Details

Date: 23 January 2021
Orbit: 607 x 630 km, 82.5° (Epoch: 04 March)

Event Time Altitude Azimuth Distance (km) Brightness Sun altitude
Rises 20:29:57 0° 206° (SSW) 2,957 7.9 -33.1°
Reaches altitude 10° 20:32:50 10° 225° (SW) 2,038 6.6 -33.1°
Enters shadow 20:33:39 13° 234° (SW) 1,839 6.3 -33.1°
